^^
Saratoga-Weather Station Historical Data
Daily Summary for January 22, 2021 Units:  English    Metric   Both
Daily Weekly Monthly Yearly Custom
  High: Low: Average:
Temperature: 66.2 °F 59.7 °F 61.9 °F
Dew Point: 61.9 °F 56.3 °F 58.5 °F
Humidity: 95% 76% 89%
Wind Speed: 6mph 0mph 1.2mph
Wind Gust: 8mph - -
Wind- - SSE
Pressure: 30 in 29.8 in -
Precipitation: 0.19 in    
Historical Graphs
 
 
Tabular Data for January 22, 2021
Time Temperature Dew Point Pressure Wind Wind Speed Wind Gust Humidity Rainfall Rate (Hourly) solar
00:02 66.2 °F 58.5 °F 29.8 in Calm   3 mph 76% 0 in 0 W/m2
00:07 66 °F 58.3 °F 29.8 in NE 2 mph 4 mph 76% 0 in 0 W/m2
00:12 65.8 °F 58.1 °F 29.8 in West 2 mph 6 mph 76% 0 in 0 W/m2
00:17 65.8 °F 58.1 °F 29.8 in ENE 0.9 mph 5 mph 76% 0 in 0 W/m2
00:22 65.7 °F 58.3 °F 29.8 in West 0.9 mph 4 mph 77% 0 in 0 W/m2
00:27 65.5 °F 57.7 °F 29.8 in NE 0.9 mph 3 mph 76% 0 in 0 W/m2
00:32 65.5 °F 58.1 °F 29.8 in North 0.9 mph 3 mph 77% 0 in 0 W/m2
00:37 65.3 °F 57.9 °F 29.8 in SSW 0.9 mph 3 mph 77% 0 in 0 W/m2
00:42 65.1 °F 58.1 °F 29.8 in Calm   4 mph 78% 0 in 0 W/m2
00:47 64.9 °F 57.9 °F 29.8 in ESE 2 mph 3 mph 78% 0 in 0 W/m2
00:52 64.9 °F 57.9 °F 29.8 in Calm   1 mph 78% 0 in 0 W/m2
00:57 64.8 °F 58.1 °F 29.8 in ESE 2.9 mph 4 mph 79% 0 in 0 W/m2
01:02 64.8 °F 58.1 °F 29.8 in North 2 mph 3 mph 79% 0 in 0 W/m2
01:07 64.6 °F 58.3 °F 29.8 in Calm     80% 0 in 0 W/m2
01:12 64.6 °F 58.3 °F 29.8 in Calm   2 mph 80% 0 in 0 W/m2
01:17 64.6 °F 58.3 °F 29.8 in NE 0.9 mph 2 mph 80% 0 in 0 W/m2
01:22 64.4 °F 58.1 °F 29.8 in Calm   1 mph 80% 0 in 0 W/m2
01:27 64.4 °F 58.5 °F 29.8 in NE 2 mph 3 mph 81% 0 in 0 W/m2
01:32 64.2 °F 58.3 °F 29.8 in East 2 mph 2 mph 81% 0 in 0 W/m2
01:37 64 °F 58.5 °F 29.8 in Calm   2 mph 82% 0 in 0 W/m2
01:42 63.9 °F 58.3 °F 29.8 in Calm   3 mph 82% 0 in 0 W/m2
01:47 63.9 °F 58.6 °F 29.8 in ENE 0.9 mph 4 mph 83% 0 in 0 W/m2
01:52 63.7 °F 58.5 °F 29.8 in East 2.9 mph 3 mph 83% 0 in 0 W/m2
01:57 63.5 °F 58.3 °F 29.8 in NE 2 mph 3 mph 83% 0 in 0 W/m2
02:02 63.3 °F 58.5 °F 29.8 in ESE 2.9 mph 4 mph 84% 0 in 0 W/m2
02:07 63.3 °F 58.5 °F 29.8 in Calm   5 mph 84% 0 in 0 W/m2
02:12 63.3 °F 58.5 °F 29.8 in East 0.9 mph 2 mph 84% 0 in 0 W/m2
02:17 63.1 °F 58.3 °F 29.8 in North 0.9 mph 4 mph 84% 0 in 0 W/m2
02:22 63.1 °F 58.3 °F 29.8 in Calm   5 mph 84% 0 in 0 W/m2
02:28 63 °F 58.5 °F 29.8 in NE 0.9 mph 2 mph 85% 0 in 0 W/m2
02:33 62.8 °F 58.3 °F 29.8 in East 2.9 mph 3 mph 85% 0 in 0 W/m2
02:38 62.4 °F 57.9 °F 29.8 in ENE 0.9 mph 6 mph 85% 0 in 0 W/m2
02:43 62.2 °F 57.7 °F 29.8 in ESE 2 mph 4 mph 85% 0 in 0 W/m2
02:48 62.1 °F 57.7 °F 29.8 in ENE 2.9 mph 5 mph 86% 0 in 0 W/m2
02:53 61.9 °F 57.6 °F 29.8 in East 2 mph 4 mph 86% 0 in 0 W/m2
02:58 61.9 °F 57.6 °F 29.8 in Calm   3 mph 86% 0 in 0 W/m2
03:03 61.7 °F 57.4 °F 29.8 in ESE 2 mph 4 mph 86% 0 in 0 W/m2
03:08 61.5 °F 57.6 °F 29.8 in NNW 2.9 mph 4 mph 87% 0 in 0 W/m2
03:13 61.5 °F 57.6 °F 29.8 in Calm   2 mph 87% 0 in 0 W/m2
03:18 61.5 °F 57.6 °F 29.8 in ESE 2 mph 4 mph 87% 0 in 0 W/m2
03:23 61.5 °F 57.6 °F 29.8 in Calm   1 mph 87% 0 in 0 W/m2
03:28 61.5 °F 57.6 °F 29.8 in WNW 0.9 mph 3 mph 87% 0 in 0 W/m2
03:33 61.5 °F 57.6 °F 29.8 in Calm   3 mph 87% 0 in 0 W/m2
03:38 61.5 °F 57.6 °F 29.8 in NNW 2 mph 3 mph 87% 0 in 0 W/m2
03:43 61.5 °F 57.6 °F 29.8 in West 0.9 mph 3 mph 87% 0 in 0 W/m2
03:48 61.3 °F 57.4 °F 29.8 in ENE 2 mph 4 mph 87% 0 in 0 W/m2
03:53 61.3 °F 57.4 °F 29.8 in SE 2.9 mph 4 mph 87% 0 in 0 W/m2
03:58 61.3 °F 57.4 °F 29.8 in NNW 2.9 mph 3 mph 87% 0 in 0 W/m2
04:03 61.2 °F 57.2 °F 29.8 in Calm   3 mph 87% 0 in 0 W/m2
04:08 61.2 °F 57.2 °F 29.8 in ESE 2 mph 2 mph 87% 0 in 0 W/m2
04:13 61.2 °F 57.2 °F 29.8 in East 2 mph 5 mph 87% 0 in 0 W/m2
04:18 61.2 °F 57.2 °F 29.8 in ESE 2 mph 4 mph 87% 0 in 0 W/m2
04:23 61.2 °F 57.2 °F 29.8 in East 2 mph 3 mph 87% 0 in 0 W/m2
04:28 61.2 °F 57.2 °F 29.8 in Calm   2 mph 87% 0 in 0 W/m2
04:33 61.2 °F 57.2 °F 29.8 in NE 0.9 mph 6 mph 87% 0 in 0 W/m2
04:38 61 °F 57 °F 29.8 in NE 4 mph 4 mph 87% 0 in 0 W/m2
04:43 61 °F 57 °F 29.8 in Calm   2 mph 87% 0 in 0 W/m2
04:48 61 °F 57.4 °F 29.8 in East 2 mph 3 mph 88% 0 in 0 W/m2
04:53 61 °F 57 °F 29.8 in North 4 mph 4 mph 87% 0 in 0 W/m2
04:58 61 °F 57 °F 29.8 in NE 0.9 mph 4 mph 87% 0 in 0 W/m2
05:03 60.6 °F 56.7 °F 29.8 in WNW 0.9 mph 4 mph 87% 0 in 0 W/m2
05:08 60.6 °F 57 °F 29.8 in ENE 0.9 mph 4 mph 88% 0 in 0 W/m2
05:13 60.4 °F 56.8 °F 29.8 in Calm   3 mph 88% 0 in 0 W/m2
05:18 60.4 °F 56.8 °F 29.8 in East 2 mph 3 mph 88% 0 in 0 W/m2
05:23 60.4 °F 56.8 °F 29.8 in North 0.9 mph 5 mph 88% 0 in 0 W/m2
05:28 60.3 °F 56.7 °F 29.8 in Calm   1 mph 88% 0 in 0 W/m2
05:33 60.3 °F 56.7 °F 29.8 in NNE 2 mph 5 mph 88% 0 in 0 W/m2
05:38 60.3 °F 56.7 °F 29.8 in Calm   1 mph 88% 0 in 0 W/m2
05:43 60.3 °F 56.7 °F 29.8 in NW 0.9 mph 4 mph 88% 0 in 0 W/m2
05:48 60.3 °F 56.7 °F 29.8 in Calm   2 mph 88% 0 in 0 W/m2
05:53 60.3 °F 56.7 °F 29.8 in North 2 mph 5 mph 88% 0 in 0 W/m2
05:58 60.1 °F 56.5 °F 29.8 in NNW 0.9 mph 3 mph 88% 0 in 0 W/m2
06:03 60.1 °F 56.5 °F 29.8 in West 2 mph 5 mph 88% 0 in 5 W/m2
06:08 60.1 °F 56.5 °F 29.8 in NNE 2 mph 3 mph 88% 0 in 7 W/m2
06:13 59.9 °F 56.3 °F 29.8 in ENE 0.9 mph 3 mph 88% 0 in 5 W/m2
06:18 59.9 °F 56.3 °F 29.8 in Calm   3 mph 88% 0 in 7 W/m2
06:23 59.9 °F 56.3 °F 29.8 in Calm   2 mph 88% 0 in 11 W/m2
06:28 59.9 °F 56.3 °F 29.8 in Calm   2 mph 88% 0 in 12 W/m2
06:33 59.9 °F 56.3 °F 29.8 in ENE 2 mph 5 mph 88% 0 in 12 W/m2
06:38 59.9 °F 56.3 °F 29.8 in Calm   2 mph 88% 0 in 11 W/m2
06:43 60.1 °F 56.5 °F 29.8 in Calm   5 mph 88% 0 in 12 W/m2
06:48 60.1 °F 56.5 °F 29.8 in Calm   7 mph 88% 0 in 16 W/m2
06:53 60.1 °F 56.5 °F 29.8 in ENE 0.9 mph 1 mph 88% 0 in 16 W/m2
06:58 60.1 °F 56.5 °F 29.8 in ENE 0.9 mph 5 mph 88% 0 in 12 W/m2
07:03 60.1 °F 56.5 °F 29.8 in Calm   1 mph 88% 0 in 16 W/m2
07:08 60.1 °F 56.5 °F 29.8 in East 0.9 mph 5 mph 88% 0 in 23 W/m2
07:13 60.1 °F 56.5 °F 29.8 in ENE 2 mph 6 mph 88% 0 in 21 W/m2
07:18 60.1 °F 56.5 °F 29.8 in Calm   2 mph 88% 0 in 25 W/m2
07:23 60.3 °F 56.7 °F 29.8 in NW 0.9 mph 2 mph 88% 0 in 26 W/m2
07:28 60.3 °F 56.7 °F 29.8 in East 2.9 mph 4 mph 88% 0 in 30 W/m2
07:34 60.3 °F 56.3 °F 29.8 in Calm   2 mph 87% 0 in 32 W/m2
07:39 60.3 °F 56.3 °F 29.8 in West 4 mph 4 mph 87% 0 in 35 W/m2
07:44 60.4 °F 56.5 °F 29.8 in East 0.9 mph 3 mph 87% 0 in 35 W/m2
07:49 60.4 °F 56.5 °F 29.8 in SE 2 mph 3 mph 87% 0 in 40 W/m2
07:54 60.4 °F 56.5 °F 29.8 in NW 0.9 mph 5 mph 87% 0 in 37 W/m2
07:59 60.4 °F 56.5 °F 29.8 in ENE 0.9 mph 5 mph 87% 0 in 30 W/m2
08:04 60.4 °F 56.5 °F 29.8 in ENE 2 mph 2 mph 87% 0 in 30 W/m2
08:09 60.6 °F 56.7 °F 29.8 in ENE 2 mph 7 mph 87% 0 in 28 W/m2
08:14 60.6 °F 56.7 °F 29.8 in East 2 mph 6 mph 87% 0 in 32 W/m2
08:19 60.6 °F 56.7 °F 29.8 in NE 2 mph 7 mph 87% 0 in 30 W/m2
08:24 60.6 °F 56.7 °F 29.8 in ENE 2 mph 4 mph 87% 0 in 33 W/m2
08:29 60.6 °F 56.7 °F 29.8 in ESE 2 mph 7 mph 87% 0 in 37 W/m2
08:34 60.6 °F 56.7 °F 29.8 in East 2.9 mph 6 mph 87% 0 in 39 W/m2
08:39 60.6 °F 57 °F 29.8 in East 0.9 mph 1 mph 88% 0 in 33 W/m2
08:44 60.6 °F 56.7 °F 29.8 in ENE 2.9 mph 6 mph 87% 0 in 32 W/m2
08:49 60.8 °F 56.8 °F 29.8 in ENE 2 mph 8 mph 87% 0 in 35 W/m2
08:54 61 °F 57 °F 29.8 in East 2 mph 6 mph 87% 0 in 42 W/m2
08:59 61 °F 57 °F 29.8 in ESE 2 mph 7 mph 87% 0 in 37 W/m2
09:04 61 °F 57 °F 29.8 in NNE 0.9 mph 3 mph 87% 0 in 35 W/m2
09:09 61 °F 57 °F 29.8 in ENE 2 mph 3 mph 87% 0 in 37 W/m2
09:14 61.2 °F 57.6 °F 29.8 in ESE 2.9 mph 6 mph 88% 0 in 33 W/m2
09:19 61.2 °F 57.6 °F 29.9 in Calm   2 mph 88% 0 in 33 W/m2
09:24 61.2 °F 57.6 °F 29.9 in ENE 2 mph 2 mph 88% 0 in 35 W/m2
09:29 61.2 °F 57.6 °F 29.9 in Calm   3 mph 88% 0 in 40 W/m2
09:34 61.2 °F 57.6 °F 29.9 in NNW 0.9 mph 2 mph 88% 0 in 44 W/m2
09:39 61.2 °F 57.6 °F 29.9 in North 2 mph 3 mph 88% 0 in 49 W/m2
09:44 61.2 °F 57.2 °F 29.9 in NNW 0.9 mph 3 mph 87% 0 in 44 W/m2
09:49 61.2 °F 57.2 °F 29.9 in NNW 0.9 mph 2 mph 87% 0 in 39 W/m2
09:54 61.2 °F 57.2 °F 29.9 in Calm   1 mph 87% 0 in 33 W/m2
09:59 61.2 °F 57.2 °F 29.9 in ENE 0.9 mph 4 mph 87% 0 in 39 W/m2
10:04 61.3 °F 57.4 °F 29.9 in Calm   3 mph 87% 0 in 39 W/m2
10:09 61.2 °F 57.2 °F 29.9 in East 0.9 mph 5 mph 87% 0 in 44 W/m2
10:14 61.2 °F 57.2 °F 29.9 in NE 0.9 mph 3 mph 87% 0 in 46 W/m2
10:19 61.2 °F 57.2 °F 29.9 in Calm   5 mph 87% 0 in 54 W/m2
10:24 61.2 °F 57.2 °F 29.9 in North 0.9 mph 4 mph 87% 0 in 63 W/m2
10:29 61.2 °F 57.2 °F 29.9 in NE 2 mph 2 mph 87% 0 in 65 W/m2
10:34 61.3 °F 57.4 °F 29.9 in North 0.9 mph 4 mph 87% 0 in 72 W/m2
10:39 61.3 °F 57.4 °F 29.9 in Calm   2 mph 87% 0 in 67 W/m2
10:44 61.3 °F 57.4 °F 29.9 in ESE 0.9 mph 4 mph 87% 0 in 58 W/m2
10:49 61.2 °F 57.2 °F 29.9 in WNW 4 mph 4 mph 87% 0 in 53 W/m2
10:54 61.2 °F 57.2 °F 29.9 in WSW 2 mph 2 mph 87% 0 in 54 W/m2
10:59 61.2 °F 57.2 °F 29.9 in NW 2 mph 4 mph 87% 0 in 60 W/m2
11:04 61.2 °F 57.2 °F 29.9 in Calm   3 mph 87% 0 in 60 W/m2
11:09 61.3 °F 57.4 °F 29.9 in North 2 mph 4 mph 87% 0 in 65 W/m2
11:14 61.3 °F 57.4 °F 29.9 in ESE 2 mph 3 mph 87% 0 in 67 W/m2
11:19 61.3 °F 57.4 °F 29.9 in ENE 0.9 mph 5 mph 87% 0 in 65 W/m2
11:24 61.3 °F 57.7 °F 29.9 in NNE 2 mph 4 mph 88% 0 in 67 W/m2
11:29 61.3 °F 57.7 °F 29.9 in Calm   3 mph 88% 0 in 79 W/m2
11:34 61.3 °F 57.7 °F 29.9 in North 2 mph 4 mph 88% 0 in 84 W/m2
11:39 61.3 °F 58.1 °F 29.9 in NW 2.9 mph 3 mph 89% 0 in 90 W/m2
11:44 61.2 °F 57.9 °F 29.9 in ENE 2 mph 4 mph 89% 0 in 83 W/m2
11:49 61.2 °F 58.3 °F 29.9 in East 0.9 mph 1 mph 90% 0 in 76 W/m2
11:54 61.2 °F 58.5 °F 29.9 in NW 0.9 mph 3 mph 91% 0 in 74 W/m2
11:59 61.2 °F 58.5 °F 29.9 in ENE 0.9 mph 5 mph 91% 0 in 84 W/m2
12:04 61 °F 58.6 °F 29.9 in ESE 2.9 mph 3 mph 92% 0 in 69 W/m2
12:09 60.8 °F 58.5 °F 29.9 in Calm   4 mph 92% 0 in 69 W/m2
12:14 60.4 °F 58.1 °F 29.9 in NW 0.9 mph 3 mph 92% 0 in 67 W/m2
12:19 60.3 °F 57.9 °F 29.9 in North 0.9 mph 3 mph 92% 0 in 70 W/m2
12:24 60.3 °F 57.9 °F 29.9 in Calm   2 mph 92% 0 in 72 W/m2
12:29 60.1 °F 58.1 °F 29.9 in Calm   2 mph 93% 0 in 60 W/m2
12:34 60.1 °F 58.1 °F 29.9 in ENE 0.9 mph 2 mph 93% 0 in 56 W/m2
12:39 59.9 °F 57.9 °F 29.9 in Calm   3 mph 93% 0 in 46 W/m2
12:44 59.7 °F 57.7 °F 29.9 in WNW 2 mph 2 mph 93% 0 in 44 W/m2
12:49 59.7 °F 57.7 °F 29.9 in Calm   3 mph 93% 0.01 in 49 W/m2
12:54 59.7 °F 57.9 °F 29.9 in East 2 mph 3 mph 94% 0.01 in 70 W/m2
12:59 59.7 °F 57.9 °F 29.9 in NE 2 mph 4 mph 94% 0.02 in 54 W/m2
13:04 59.7 °F 57.9 °F 29.9 in Calm   3 mph 94% 0.02 in 62 W/m2
13:10 59.7 °F 57.9 °F 29.9 in WNW 2 mph 4 mph 94% 0.02 in 63 W/m2
13:15 59.7 °F 57.9 °F 29.9 in WNW 0.9 mph 2 mph 94% 0.02 in 67 W/m2
13:20 59.7 °F 57.9 °F 29.9 in WNW 0.9 mph 1 mph 94% 0.02 in 69 W/m2
13:25 59.7 °F 57.9 °F 29.9 in NNE 2 mph 4 mph 94% 0.02 in 107 W/m2
13:30 59.9 °F 58.1 °F 29.9 in Calm   2 mph 94% 0.02 in 120 W/m2
13:35 60.1 °F 58.3 °F 29.9 in Calm   2 mph 94% 0.03 in 165 W/m2
13:40 60.1 °F 58.3 °F 29.9 in Calm   2 mph 94% 0.03 in 128 W/m2
13:45 60.3 °F 58.8 °F 29.9 in North 0.9 mph 3 mph 95% 0.02 in 113 W/m2
13:50 60.4 °F 59 °F 29.9 in NE 0.9 mph 3 mph 95% 0.03 in 123 W/m2
13:55 60.4 °F 59 °F 29.9 in West 2 mph 4 mph 95% 0.04 in 100 W/m2
14:00 60.4 °F 58.6 °F 29.9 in Calm   2 mph 94% 0.04 in 47 W/m2
14:05 60.4 °F 58.6 °F 29.9 in Calm   4 mph 94% 0.05 in 54 W/m2
14:10 60.4 °F 58.6 °F 29.9 in Calm     94% 0.05 in 69 W/m2
14:15 60.4 °F 58.6 °F 29.9 in Calm   4 mph 94% 0.04 in 49 W/m2
14:20 60.4 °F 58.6 °F 29.9 in NNW 0.9 mph 2 mph 94% 0.04 in 44 W/m2
14:25 60.4 °F 58.6 °F 29.9 in East 2 mph 2 mph 94% 0.04 in 44 W/m2
14:30 60.4 °F 58.6 °F 29.9 in West 4 mph 5 mph 94% 0.04 in 39 W/m2
14:35 60.4 °F 58.6 °F 29.9 in Calm     94% 0.04 in 49 W/m2
14:40 60.4 °F 58.6 °F 29.9 in SE 2 mph 5 mph 94% 0.04 in 67 W/m2
14:45 60.4 °F 58.6 °F 29.9 in NNE 0.9 mph 3 mph 94% 0.04 in 72 W/m2
14:50 60.6 °F 58.8 °F 29.9 in NE 2 mph 2 mph 94% 0.03 in 51 W/m2
14:55 60.6 °F 58.8 °F 29.9 in Calm   2 mph 94% 0.02 in 39 W/m2
15:00 60.6 °F 58.8 °F 29.9 in Calm   1 mph 94% 0.02 in 19 W/m2
15:05 60.6 °F 58.8 °F 29.9 in West 0.9 mph 2 mph 94% 0.01 in 11 W/m2
15:10 60.6 °F 58.8 °F 29.9 in NW 0.9 mph 2 mph 94% 0.01 in 14 W/m2
15:15 60.6 °F 58.8 °F 29.9 in Calm   1 mph 94% 0.06 in 19 W/m2
15:20 60.4 °F 58.6 °F 29.9 in Calm   1 mph 94% 0.09 in 14 W/m2
15:25 60.4 °F 58.6 °F 29.9 in ENE 0.9 mph 1 mph 94% 0.1 in 18 W/m2
15:30 60.4 °F 58.6 °F 29.9 in NNW 0.9 mph 3 mph 94% 0.09 in 18 W/m2
15:35 60.4 °F 58.6 °F 29.9 in Calm   2 mph 94% 0.1 in 19 W/m2
15:40 60.4 °F 58.6 °F 29.9 in East 0.9 mph 3 mph 94% 0.1 in 21 W/m2
15:45 60.3 °F 58.5 °F 29.9 in SSE 2 mph 2 mph 94% 0.1 in 26 W/m2
15:50 60.3 °F 58.5 °F 29.9 in WSW 0.9 mph 3 mph 94% 0.1 in 32 W/m2
15:55 60.3 °F 58.8 °F 29.9 in Calm   3 mph 95% 0.11 in 39 W/m2
16:00 60.3 °F 58.8 °F 29.9 in NNW 2 mph 2 mph 95% 0.11 in 47 W/m2
16:05 60.4 °F 59 °F 29.9 in West 2 mph 3 mph 95% 0.11 in 56 W/m2
16:10 60.4 °F 59 °F 29.9 in WNW 0.9 mph 4 mph 95% 0.11 in 44 W/m2
16:15 60.4 °F 59 °F 29.9 in Calm   1 mph 95% 0.06 in 54 W/m2
16:20 60.4 °F 59 °F 29.9 in West 2 mph 4 mph 95% 0.02 in 88 W/m2
16:25 60.4 °F 59 °F 29.9 in West 2 mph 4 mph 95% 0.02 in 81 W/m2
16:30 60.4 °F 59 °F 29.9 in West 0.9 mph 4 mph 95% 0.02 in 88 W/m2
16:35 60.6 °F 59.2 °F 29.9 in WNW 2 mph 3 mph 95% 0.01 in 130 W/m2
16:40 60.6 °F 59.2 °F 29.9 in WNW 2 mph 2 mph 95% 0.01 in 127 W/m2
16:45 61 °F 59.5 °F 29.9 in WNW 2.9 mph 4 mph 95% 0.01 in 116 W/m2
16:50 61 °F 59.5 °F 29.9 in WNW 0.9 mph 2 mph 95% 0.01 in 102 W/m2
16:55 61 °F 59.5 °F 29.9 in Calm   2 mph 95% 0 in 105 W/m2
17:01 61.2 °F 59.4 °F 29.9 in Calm     94% 0 in 116 W/m2
17:06 61.3 °F 59.5 °F 29.9 in Calm   2 mph 94% 0 in 90 W/m2
17:11 61.3 °F 59.5 °F 29.9 in Calm   1 mph 94% 0 in 97 W/m2
17:16 61.5 °F 59.7 °F 29.9 in Calm   2 mph 94% 0.01 in 104 W/m2
17:21 61.5 °F 59.7 °F 29.9 in Calm   1 mph 94% 0.01 in 120 W/m2
17:26 61.9 °F 60.1 °F 29.9 in Calm   2 mph 94% 0.01 in 130 W/m2
17:31 61.9 °F 60.1 °F 29.9 in Calm   1 mph 94% 0.01 in 121 W/m2
17:36 62.1 °F 60.3 °F 29.9 in Calm   1 mph 94% 0.01 in 134 W/m2
17:41 62.2 °F 60.3 °F 29.9 in West 2 mph 2 mph 93% 0.01 in 461 W/m2
17:46 62.8 °F 61 °F 29.9 in NW 0.9 mph 3 mph 94% 0.01 in 304 W/m2
17:51 63.1 °F 61.2 °F 29.9 in NW 2 mph 2 mph 93% 0.01 in 473 W/m2
17:56 63.7 °F 61.7 °F 29.9 in Calm   3 mph 93% 0.01 in 323 W/m2
18:01 63.9 °F 61.5 °F 29.9 in Calm   2 mph 92% 0.01 in 297 W/m2
18:06 64.2 °F 61.9 °F 29.9 in ESE 0.9 mph 4 mph 92% 0.01 in 255 W/m2
18:11 64.4 °F 61.7 °F 29.9 in Calm   2 mph 91% 0.01 in 174 W/m2
18:16 64.6 °F 61.9 °F 29.9 in ESE 2.9 mph 4 mph 91% 0 in 146 W/m2
18:21 64.6 °F 61.5 °F 29.9 in East 0.9 mph 3 mph 90% 0 in 160 W/m2
18:26 64.4 °F 61.3 °F 29.9 in Calm   2 mph 90% 0 in 142 W/m2
18:31 64.2 °F 61 °F 29.9 in NNE 0.9 mph 3 mph 89% 0 in 139 W/m2
18:36 64.2 °F 61.2 °F 29.9 in North 0.9 mph 2 mph 90% 0 in 211 W/m2
18:41 64.4 °F 61.2 °F 29.9 in ENE 0.9 mph 3 mph 89% 0 in 193 W/m2
18:46 64.6 °F 61.3 °F 29.9 in Calm   2 mph 89% 0 in 267 W/m2
18:51 64.9 °F 61.9 °F 29.9 in ENE 2 mph 3 mph 90% 0 in 285 W/m2
18:56 65.1 °F 61.9 °F 29.9 in ENE 2 mph 4 mph 89% 0 in 109 W/m2
19:01 64.9 °F 61.7 °F 29.9 in East 2 mph 3 mph 89% 0 in 105 W/m2
19:06 64.8 °F 61.2 °F 29.9 in ESE 0.9 mph 4 mph 88% 0 in 149 W/m2
19:11 64.9 °F 61.7 °F 29.9 in East 2 mph 2 mph 89% 0 in 234 W/m2
19:16 65.1 °F 61.5 °F 29.9 in ESE 2 mph 3 mph 88% 0 in 116 W/m2
19:21 65.3 °F 61.7 °F 29.9 in NNE 2 mph 4 mph 88% 0 in 355 W/m2
19:26 65.5 °F 61.5 °F 29.9 in NNW 0.9 mph 5 mph 87% 0 in 218 W/m2
19:31 65.5 °F 61.5 °F 29.9 in West 6 mph 7 mph 87% 0 in 104 W/m2
19:36 65.1 °F 61.2 °F 29.9 in NE 2 mph 4 mph 87% 0 in 93 W/m2
19:41 65.1 °F 61.5 °F 29.9 in NW 6 mph 6 mph 88% 0 in 158 W/m2
19:46 65.3 °F 61.3 °F 29.9 in ENE 4 mph 4 mph 87% 0 in 158 W/m2
19:51 65.5 °F 61.5 °F 29.9 in NE 2 mph 4 mph 87% 0 in 74 W/m2
19:56 65.3 °F 61.3 °F 29.9 in ENE 0.9 mph 2 mph 87% 0 in 90 W/m2
20:01 65.1 °F 61.2 °F 29.9 in East 0.9 mph 2 mph 87% 0 in 53 W/m2
20:06 65.1 °F 61.5 °F 29.9 in North 0.9 mph 1 mph 88% 0 in 130 W/m2
20:11 65.1 °F 61.2 °F 29.9 in Calm   4 mph 87% 0 in 148 W/m2
20:16 65.5 °F 61.5 °F 29.9 in NE 0.9 mph 5 mph 87% 0 in 132 W/m2
20:21 65.5 °F 61.5 °F 29.9 in NE 0.9 mph 3 mph 87% 0 in 125 W/m2
20:26 65.5 °F 61.5 °F 29.9 in Calm   5 mph 87% 0 in 111 W/m2
20:31 65.5 °F 61.5 °F 29.9 in Calm     87% 0 in 77 W/m2
20:36 65.3 °F 61.3 °F 29.9 in ENE 2 mph 3 mph 87% 0 in 86 W/m2
20:41 65.1 °F 61.2 °F 29.9 in East 0.9 mph 4 mph 87% 0 in 91 W/m2
20:46 65.1 °F 61.2 °F 29.9 in NW 0.9 mph 3 mph 87% 0 in 67 W/m2
20:51 65.1 °F 61.2 °F 29.9 in NW 2 mph 2 mph 87% 0 in 51 W/m2
20:56 64.8 °F 60.4 °F 29.9 in NW 0.9 mph 4 mph 86% 0 in 28 W/m2
21:01 64 °F 60.1 °F 29.9 in West 4 mph 4 mph 87% 0 in 19 W/m2
21:06 63.7 °F 60.1 °F 29.9 in NW 2.9 mph 3 mph 88% 0 in 21 W/m2
21:11 63.3 °F 60.1 °F 29.9 in NNW 0.9 mph 3 mph 89% 0 in 14 W/m2
21:16 63 °F 59.9 °F 29.9 in NNW 4 mph 4 mph 90% 0 in 11 W/m2
21:21 62.8 °F 59.7 °F 29.9 in ENE 0.9 mph 4 mph 90% 0 in 7 W/m2
21:26 62.6 °F 59.5 °F 30 in Calm     90% 0 in 5 W/m2
21:31 62.6 °F 59.9 °F 30 in West 2 mph 3 mph 91% 0 in 5 W/m2
21:36 62.4 °F 59.7 °F 30 in WNW 2 mph 3 mph 91% 0 in 0 W/m2
21:41 62.2 °F 59.5 °F 30 in ENE 2 mph 4 mph 91% 0 in 0 W/m2
21:46 62.2 °F 59.5 °F 30 in NE 0.9 mph 3 mph 91% 0 in 0 W/m2
21:51 62.2 °F 59.9 °F 30 in NNE 0.9 mph 4 mph 92% 0 in 0 W/m2
21:56 62.1 °F 59.7 °F 30 in ENE 0.9 mph 3 mph 92% 0 in 0 W/m2
22:01 62.1 °F 59.4 °F 30 in North 0.9 mph 3 mph 91% 0 in 0 W/m2
22:07 62.1 °F 59.4 °F 30 in Calm   1 mph 91% 0 in 0 W/m2
22:12 61.9 °F 59.5 °F 30 in Calm   3 mph 92% 0 in 0 W/m2
22:17 61.9 °F 59.5 °F 30 in Calm   2 mph 92% 0 in 0 W/m2
22:22 61.7 °F 59.4 °F 30 in NNW 0.9 mph 2 mph 92% 0 in 0 W/m2
22:27 61.5 °F 59.2 °F 30 in NE 0.9 mph 1 mph 92% 0 in 0 W/m2
22:32 61.5 °F 59.2 °F 30 in NE 2 mph 2 mph 92% 0 in 0 W/m2
22:37 61.5 °F 59.2 °F 30 in Calm   1 mph 92% 0 in 0 W/m2
22:42 61.3 °F 59 °F 30 in East 0.9 mph 2 mph 92% 0 in 0 W/m2
22:47 61.3 °F 59 °F 30 in East 0.9 mph 1 mph 92% 0 in 0 W/m2
22:52 61.2 °F 58.8 °F 30 in Calm   1 mph 92% 0 in 0 W/m2
22:57 61.2 °F 59.2 °F 30 in Calm   2 mph 93% 0 in 0 W/m2
23:02 61.2 °F 59.2 °F 30 in NE 2 mph 2 mph 93% 0 in 0 W/m2
23:07 61.2 °F 59.2 °F 30 in NW 2 mph 3 mph 93% 0 in 0 W/m2
23:12 61 °F 59 °F 30 in WSW 4 mph 5 mph 93% 0 in 0 W/m2
23:17 61 °F 59 °F 30 in WNW 2 mph 4 mph 93% 0 in 0 W/m2
23:22 60.6 °F 58.6 °F 30 in West 2 mph 4 mph 93% 0 in 0 W/m2
23:27 60.6 °F 58.6 °F 30 in Calm   1 mph 93% 0 in 0 W/m2
23:32 60.6 °F 58.6 °F 30 in Calm     93% 0 in 0 W/m2
23:37 60.6 °F 58.6 °F 30 in Calm     93% 0 in 0 W/m2
23:42 60.6 °F 58.6 °F 30 in NW 2.9 mph 6 mph 93% 0 in 0 W/m2
23:47 60.6 °F 58.6 °F 30 in Calm   2 mph 93% 0 in 0 W/m2
23:52 60.8 °F 58.8 °F 30 in Calm   4 mph 93% 0 in 0 W/m2
23:57 61 °F 59 °F 30 in Calm     93% 0 in 0 W/m2
Juneau County Weather
Compliments of Weather Underground - 4 mb